GFSSGP_925_thetae_276.txt.gz
Theta_e
327 328 328 333 338 338 342 343 345 345 344 339 342 349 350 349 350 353 346 343 334 334 343 341 338 335 341 344 342 342 345 337 336 339 341 342 342 343 342 340 337 334 332 330 329 330 331 331 330
326 326 327 332 338 341 341 339 344 345 342 337 337 341 346 349 347 349 348 344 335 337 344 346 338 335 337 343 342 345 344 337 338 338 341 341 342 341 339 337 335 332 329 332 334 336 336 336 336
320 322 329 333 337 340 341 337 339 338 336 328 334 342 346 349 347 348 348 345 337 339 342 348 338 334 334 341 343 345 340 338 337 337 340 340 339 338 337 336 334 330 333 338 341 342 341 342 342
320 323 326 328 333 337 337 336 333 333 327 326 334 341 345 350 350 349 347 345 337 338 340 349 337 334 332 334 340 339 337 337 335 339 339 338 337 337 336 333 331 332 341 344 343 341 341 340 340
322 324 323 326 325 329 334 333 333 333 330 326 340 341 346 352 351 350 348 346 340 338 339 347 335 333 332 332 333 334 335 334 336 336 336 337 337 336 333 331 330 336 343 338 331 333 333 331 332
321 323 322 322 323 325 328 329 331 330 330 326 333 346 349 352 352 350 348 347 341 338 340 346 335 333 331 332 332 333 334 335 334 334 335 336 336 335 332 330 331 341 341 329 324 323 326 327 326
321 321 320 321 321 322 323 325 325 328 328 326 333 351 354 353 353 352 350 347 342 339 339 345 345 341 332 331 333 335 335 334 335 335 335 335 335 333 331 331 333 341 328 325 322 326 328 325 325
322 322 320 321 321 321 322 323 324 325 326 325 338 351 354 353 353 352 351 349 345 341 339 342 342 344 344 342 332 333 334 334 335 336 335 336 336 332 331 331 336 330 329 328 327 328 326 325 326
321 321 321 321 321 321 323 322 323 324 324 325 333 342 349 353 353 352 351 350 347 342 340 341 340 341 341 342 343 334 333 334 335 337 337 339 341 339 340 339 340 328 329 329 329 328 326 323 325
320 320 321 321 321 321 322 322 322 323 323 325 330 335 347 352 353 353 352 349 347 343 341 341 341 340 340 340 345 343 342 341 342 342 345 342 340 342 339 342 334 328 329 329 328 327 325 324 331
320 321 321 321 320 321 322 322 322 322 322 325 328 326 338 348 353 352 351 349 346 345 344 343 343 344 342 341 344 342 341 341 342 343 344 342 340 342 338 342 336 338 333 337 332 330 327 326 329
320 321 321 320 321 321 321 321 321 322 323 325 325 324 324 342 347 350 350 349 347 345 346 345 345 347 345 343 343 343 342 342 341 342 345 342 341 341 341 341 340 340 336 335 332 329 328 327 328
319 319 319 320 321 319 319 320 320 322 322 324 324 324 326 327 343 348 348 349 349 347 347 347 347 348 347 345 345 345 344 342 341 340 342 340 339 340 342 342 343 343 340 335 333 329 327 328 327
318 318 318 319 319 319 319 319 321 322 323 323 324 325 329 340 346 349 350 350 350 350 349 348 348 349 348 347 346 346 346 344 343 340 340 342 339 339 343 345 346 346 345 337 333 329 327 328 328
319 319 319 320 320 319 320 320 321 322 322 323 324 324 324 335 344 348 348 350 350 351 351 350 350 350 350 349 348 347 346 345 344 342 340 341 341 340 344 345 348 350 350 343 332 331 328 328 328
318 319 319 320 319 319 319 319 321 322 322 322 324 324 324 325 326 330 340 346 349 351 351 351 351 351 352 350 349 347 346 346 345 344 341 341 341 341 343 342 346 349 351 342 333 333 328 328 329
320 319 319 319 319 319 319 320 321 322 322 322 323 324 324 324 325 327 326 324 340 348 350 351 352 350 352 352 351 349 348 347 345 344 343 341 339 339 341 340 344 350 349 342 333 332 329 329 329
320 320 318 318 319 318 319 320 320 321 321 322 323 323 324 326 331 332 334 333 323 334 346 350 352 352 351 352 351 349 348 346 344 344 343 341 339 337 340 338 344 350 348 340 333 332 330 329 330
318 318 318 319 319 318 318 319 320 321 321 322 322 324 328 331 331 332 335 338 334 327 344 349 351 352 352 351 350 348 347 344 342 343 343 341 340 338 339 338 340 347 346 339 335 334 332 329 331
319 319 319 317 318 318 319 320 320 321 322 325 327 329 330 331 332 333 333 336 341 340 336 346 349 351 353 351 349 346 343 345 344 342 340 342 340 339 339 340 340 345 345 338 336 333 329 329 331
319 318 318 318 320 320 321 321 321 322 326 327 328 330 332 333 335 336 336 338 341 342 343 339 347 350 352 351 349 348 344 346 346 344 342 340 337 339 339 340 340 345 344 339 337 335 331 328 331
320 318 318 320 321 320 321 318 322 324 327 329 329 331 334 336 337 338 340 342 343 344 344 340 340 349 350 351 348 347 346 344 344 344 343 341 340 338 335 336 340 345 343 339 337 335 332 331 329
319 319 320 320 321 322 322 321 323 323 325 330 332 334 335 336 338 339 341 342 343 344 346 345 343 348 348 348 348 347 347 345 345 343 343 340 341 341 339 338 342 345 343 339 336 335 333 328 326
319 320 321 321 322 323 322 322 321 323 330 332 334 334 334 334 334 335 336 338 340 342 345 348 350 350 350 348 348 347 347 347 346 345 344 344 344 343 342 339 344 345 344 338 337 335 335 330 328
320 322 324 324 322 322 322 322 323 332 331 333 334 333 332 330 331 333 333 333 335 338 341 344 347 348 351 350 349 347 347 346 346 346 348 347 347 345 344 344 344 342 341 337 336 335 335 335 331
321 323 324 325 325 323 323 322 330 329 331 331 331 330 327 326 330 329 326 326 329 332 333 336 339 341 345 348 351 349 347 348 347 347 347 348 348 348 344 343 339 337 335 335 335 335 334 333 334
320 320 319 324 324 325 324 331 330 329 329 328 329 324 323 322 327 325 321 321 326 328 331 330 330 332 335 340 343 345 349 350 350 348 348 346 344 342 338 337 335 333 330 330 328 331 333 333 334
315 317 321 320 325 329 324 325 327 332 329 325 324 323 321 320 319 319 318 319 322 323 324 325 327 329 329 332 335 340 341 342 343 345 346 342 342 340 338 334 330 329 327 328 330 328 331 333 334
318 317 318 320 323 327 328 329 331 327 324 323 321 318 319 320 320 320 319 318 317 317 319 323 326 328 327 328 329 333 338 341 340 342 342 342 342 340 337 335 332 330 329 328 329 329 328 332 333
317 320 320 323 322 321 321 324 323 319 316 316 316 316 316 316 317 317 317 318 319 319 318 320 325 327 326 325 327 329 333 338 339 337 338 342 339 338 336 335 333 331 330 327 328 329 328 331 333

GFSSGP_925_thetae_279.txt.gz
Theta_e
318 331 328 331 341 340 344 345 344 346 346 341 343 349 349 352 352 358 342 339 333 342 345 341 338 344 347 343 341 341 337 335 336 340 340 341 342 344 342 340 336 332 331 329 329 330 330 330 329
329 326 327 333 338 342 343 342 345 345 343 338 336 344 346 350 349 349 347 340 334 343 347 349 337 341 350 345 342 341 341 335 338 342 342 342 343 343 340 337 333 331 328 329 332 333 334 334 334
325 322 327 332 336 338 343 341 342 340 334 332 339 343 347 351 348 350 350 341 336 343 346 352 337 337 346 353 343 342 344 335 339 342 342 342 342 340 338 335 332 329 332 337 340 341 340 339 340
321 323 326 328 335 336 339 339 337 338 332 331 338 342 346 349 349 351 349 342 338 341 343 351 337 335 341 348 343 344 344 338 339 341 341 340 339 339 337 333 330 332 340 343 343 341 341 341 340
322 324 325 326 326 331 336 337 336 338 335 330 337 343 347 353 351 352 349 345 341 340 344 352 337 335 336 343 344 345 341 339 337 340 340 338 338 338 335 332 330 336 343 340 334 336 336 334 334
323 324 324 324 325 327 330 332 334 336 335 332 332 343 353 352 352 350 350 346 342 340 347 352 338 335 333 336 343 343 338 338 336 339 338 338 339 337 333 331 331 341 342 332 325 324 327 328 326
323 324 323 324 324 325 326 328 330 333 333 331 329 344 356 354 354 351 349 347 342 340 346 350 347 339 332 332 335 335 335 335 336 336 337 339 338 335 332 331 332 342 329 323 322 325 328 325 325
323 324 323 324 323 324 325 325 327 329 330 329 332 344 358 356 354 352 350 347 342 340 344 346 346 345 343 342 332 332 333 335 336 336 338 338 337 333 331 331 333 337 326 323 322 327 327 326 325
323 323 324 324 324 324 325 324 325 326 327 328 330 337 348 354 353 352 350 348 343 340 341 343 343 343 341 341 342 334 334 335 335 338 338 340 342 341 343 337 341 331 328 328 328 328 327 325 325
322 322 323 324 324 324 324 324 324 324 326 328 330 338 345 352 354 353 353 350 345 341 340 341 340 341 340 340 345 342 343 342 343 343 346 344 341 342 344 342 340 329 328 327 326 326 324 322 333
323 322 324 324 323 323 323 324 324 324 324 327 330 331 338 348 353 353 351 351 348 342 340 341 340 341 340 340 346 340 341 341 342 344 344 344 340 341 342 343 343 337 331 340 333 331 330 328 329
321 322 323 323 323 322 322 323 323 324 324 326 329 328 328 342 350 351 350 350 348 345 341 341 341 342 341 340 343 343 340 341 341 343 345 345 343 341 341 341 341 342 341 337 332 331 331 328 328
321 322 322 322 322 322 322 322 322 323 324 324 326 327 328 330 343 347 348 349 349 347 345 343 343 344 344 343 343 343 341 342 342 342 344 344 343 340 341 342 342 343 342 339 335 331 330 329 329
321 321 321 321 321 321 321 320 321 322 323 324 325 326 328 332 335 346 348 347 348 349 348 347 345 347 348 346 345 344 345 343 343 342 342 345 342 340 341 343 344 345 344 342 337 332 329 329 329
320 319 321 320 321 321 322 321 321 323 324 324 324 326 327 332 342 348 348 350 350 351 350 350 348 349 350 349 348 347 346 346 345 343 342 343 343 341 341 342 345 345 348 347 340 334 330 328 329
320 321 321 322 322 322 321 321 323 323 323 324 324 325 326 327 334 337 344 347 350 351 353 352 351 350 353 351 350 349 347 347 346 345 343 343 343 342 343 341 343 345 349 348 341 336 332 328 329
321 320 322 322 322 322 321 321 322 324 324 324 324 325 326 327 329 333 331 329 335 347 352 354 353 351 352 355 353 351 349 348 347 346 345 344 344 342 342 340 339 345 347 347 343 337 335 329 330
322 323 323 323 323 321 322 321 323 324 324 324 324 324 326 326 333 335 337 339 332 329 347 352 354 354 354 355 355 353 351 349 348 346 346 345 344 342 342 339 338 344 346 347 345 339 336 329 331
322 322 323 323 322 321 321 322 322 323 323 323 324 324 325 329 333 333 336 339 342 335 336 349 351 355 355 355 356 354 352 350 350 349 346 345 344 341 340 341 339 344 346 346 345 339 339 332 329
321 321 322 321 322 321 321 321 321 322 322 323 324 325 328 331 333 335 337 340 342 344 341 345 351 353 357 355 355 354 353 349 349 347 346 346 343 341 341 340 338 340 344 347 343 340 339 333 330
321 322 322 321 321 320 320 321 323 323 323 326 328 330 332 333 335 338 340 342 343 344 345 345 344 351 355 355 355 354 352 349 348 348 348 346 345 343 341 341 340 339 344 346 344 342 340 335 330
322 321 321 320 321 322 324 321 323 324 325 327 329 330 332 335 337 339 341 343 343 344 346 347 342 347 352 355 354 355 353 352 348 350 348 346 345 343 342 340 342 340 344 346 344 342 340 336 330
321 322 321 321 321 323 323 324 325 324 326 329 331 334 334 336 337 338 340 340 341 343 347 349 352 349 351 352 353 352 353 351 350 347 348 348 346 344 340 340 339 341 344 346 346 342 340 339 333
321 321 322 322 323 325 325 325 325 326 326 331 334 334 334 334 335 335 335 336 338 339 343 347 350 353 353 351 350 350 352 352 350 349 349 347 347 346 343 341 341 341 346 347 344 342 341 340 336
321 323 325 325 325 325 325 325 325 334 332 334 335 335 333 332 333 331 330 333 335 335 336 338 341 344 347 351 351 349 349 349 350 351 351 349 348 347 347 343 342 346 348 348 343 342 339 338 338
322 323 325 327 327 326 326 325 332 334 334 334 334 331 329 331 331 327 326 329 331 332 332 333 333 333 337 341 345 348 350 347 347 349 349 351 350 349 348 345 348 348 346 344 342 340 338 337 337
320 322 323 325 327 328 329 334 333 333 333 333 332 329 327 327 328 324 323 324 325 326 327 328 331 331 331 332 335 341 345 345 349 350 349 349 350 349 350 347 347 344 343 342 339 338 337 336 335
319 321 325 323 325 327 327 329 335 335 332 331 329 327 325 324 323 323 323 321 321 320 321 325 329 330 330 330 331 333 337 343 340 342 345 348 348 346 345 345 343 342 341 340 338 336 333 333 334
320 321 322 323 327 329 330 329 333 332 330 327 326 323 323 323 323 322 321 320 321 321 322 321 322 324 327 328 328 330 332 336 340 339 342 344 344 344 343 343 343 341 338 337 337 336 336 334 333
321 322 323 328 328 327 326 326 327 329 324 321 321 320 319 318 318 317 317 317 318 318 318 320 321 320 321 325 326 328 329 330 335 335 341 337 343 343 343 340 339 338 336 337 334 335 334 334 333

GFSSGP_925_thetae_285.txt.gz
Theta_e
316 315 322 328 328 331 340 349 347 345 342 340 345 348 347 346 353 342 339 341 336 340 343 341 338 338 336 338 334 333 336 335 337 337 338 341 341 340 338 334 331 329 327 327 327 328 328 328 329
314 316 326 323 325 328 334 341 346 345 336 340 345 346 347 351 345 346 344 344 332 338 342 342 339 339 337 338 337 333 335 336 337 336 338 340 341 339 336 333 331 328 329 331 332 332 332 331 329
316 320 320 318 321 327 331 342 340 338 332 331 346 346 347 349 346 344 344 342 331 338 341 342 340 339 339 339 339 334 334 336 338 338 339 340 339 337 334 332 329 329 335 339 339 338 336 335 334
324 319 315 316 317 320 323 338 338 337 331 330 344 355 347 343 346 346 345 340 330 339 341 343 342 341 340 339 340 337 335 335 338 340 339 340 338 335 334 330 328 332 340 342 340 339 338 338 338
324 315 315 317 317 319 322 335 334 337 335 330 341 352 350 342 345 348 346 340 332 342 340 342 342 342 341 340 340 340 337 335 338 340 339 339 336 335 333 330 329 334 341 337 330 332 334 332 333
317 314 315 315 317 319 321 333 334 333 333 332 356 356 356 350 349 345 345 343 338 342 340 342 342 341 342 341 341 341 341 335 337 339 339 337 335 335 331 329 329 335 341 327 322 320 323 326 325
317 315 316 316 318 319 321 326 329 329 332 327 343 356 350 352 349 348 343 344 345 346 340 342 343 342 341 341 341 341 342 336 336 336 337 335 335 334 331 329 329 337 330 321 318 320 323 324 324
316 314 316 316 318 318 320 322 322 325 327 327 338 354 348 345 344 350 343 348 349 349 339 340 342 342 341 341 340 342 342 336 335 334 335 334 334 333 330 330 329 339 323 321 319 320 323 324 324
318 315 314 316 318 318 318 319 323 325 326 327 347 347 345 342 343 351 346 353 354 352 342 338 342 343 342 340 341 342 341 335 335 335 335 334 334 332 330 333 336 339 325 322 322 322 322 323 326
317 315 317 318 318 318 318 318 320 322 323 325 347 339 338 340 343 345 346 351 352 352 348 339 340 340 341 344 343 344 340 336 334 335 334 334 333 339 342 343 342 340 327 322 325 323 324 328 329
316 316 318 319 318 320 319 319 319 320 321 322 342 341 338 338 337 345 347 342 351 351 348 346 345 340 342 345 341 342 339 337 335 334 334 333 334 342 344 343 342 341 329 335 335 332 330 327 328
317 316 317 319 319 318 320 320 319 319 321 321 344 342 339 338 340 350 348 345 345 347 346 346 346 342 343 342 335 334 335 334 334 335 336 340 336 344 344 343 342 343 338 339 338 336 329 328 328
316 316 317 317 317 317 319 320 320 318 319 320 322 346 344 344 347 351 351 347 342 344 344 344 343 340 340 342 341 331 332 335 333 335 340 342 344 342 344 344 343 344 341 340 339 334 328 326 329
316 316 316 316 315 317 319 319 320 319 319 319 319 320 323 335 345 348 348 346 343 337 342 343 343 341 340 343 342 340 337 339 340 341 341 342 346 346 343 341 341 344 346 343 340 330 329 329 328
316 315 315 316 317 318 317 317 318 318 319 318 318 320 321 323 340 344 347 344 341 336 340 340 344 342 341 346 344 344 340 342 342 342 342 343 343 345 343 340 341 342 345 342 339 335 332 327 328
315 314 315 316 317 317 317 316 319 318 318 318 319 319 321 331 342 344 343 345 345 341 338 338 343 342 340 344 349 348 343 343 343 343 344 343 344 342 342 340 342 343 346 346 345 340 335 331 329
315 314 314 317 317 317 316 315 318 318 318 317 319 321 322 333 338 342 337 337 337 347 345 344 345 343 342 342 343 347 345 346 345 344 345 345 344 343 342 342 340 344 348 348 344 339 337 335 329
314 315 315 318 320 318 317 316 319 319 319 319 320 322 326 335 335 337 335 335 334 343 341 352 348 344 344 344 342 345 348 347 349 346 345 345 343 342 342 341 339 341 345 348 345 341 338 336 331
316 316 317 319 320 320 317 319 319 318 320 320 320 321 333 334 334 339 342 342 343 340 350 353 356 350 347 351 349 349 348 348 351 349 350 348 345 344 343 342 340 340 342 341 346 342 338 336 331
317 317 318 319 320 321 320 320 320 320 320 319 320 319 333 332 334 338 344 344 344 345 344 355 356 358 355 350 354 353 353 352 350 351 350 350 348 344 344 344 342 341 343 346 347 343 340 338 336
320 320 320 320 320 320 319 319 319 321 319 319 325 325 332 333 335 341 342 343 351 353 353 350 346 360 358 358 355 354 354 355 355 354 353 351 348 345 345 344 343 340 340 343 347 346 342 339 336
320 321 321 320 319 319 320 319 319 319 318 318 327 329 330 338 341 340 341 345 348 348 349 349 351 352 359 356 357 357 358 356 356 356 354 351 350 348 346 344 342 341 341 339 341 346 346 341 338
321 320 320 321 320 320 319 317 317 319 320 318 325 326 331 339 338 337 336 339 343 343 340 344 344 348 353 356 356 355 354 356 355 354 355 351 348 346 346 344 341 341 339 344 344 346 346 343 340
323 323 321 320 317 319 320 319 319 319 321 323 325 334 338 337 336 335 335 334 336 335 336 335 335 338 344 346 348 350 349 351 351 352 352 351 348 348 347 344 343 342 343 341 345 344 347 344 341
322 322 323 323 320 321 320 321 325 331 329 326 330 334 334 334 334 334 333 331 331 334 333 332 333 333 335 336 339 342 343 344 347 348 348 349 352 349 347 346 344 343 341 340 340 348 346 345 343
323 319 323 324 325 326 324 330 340 332 326 328 324 332 329 326 326 331 330 329 331 333 332 331 330 331 331 332 334 337 336 336 339 340 343 346 348 348 350 349 347 345 343 341 343 345 347 345 342
324 323 320 321 325 326 325 327 337 332 329 327 325 323 326 326 325 322 324 328 331 331 333 333 329 329 329 329 328 330 335 336 334 336 339 341 346 346 347 350 349 347 343 341 341 340 341 344 342
322 321 326 324 328 327 325 335 337 337 330 328 326 325 322 319 321 320 320 321 323 322 321 321 322 328 328 330 328 327 329 330 335 335 335 337 338 342 345 345 349 346 344 344 348 348 346 343 342
328 328 326 323 330 333 330 336 334 332 330 329 327 324 322 321 318 316 316 315 316 316 317 317 317 319 319 320 324 327 326 328 327 329 334 337 337 337 342 344 347 345 349 349 347 346 345 343 343
326 327 328 329 329 331 329 334 331 330 327 325 324 324 322 320 319 318 315 315 315 315 315 315 315 316 317 319 319 318 321 326 324 323 326 330 338 335 336 341 342 342 343 343 342 342 342 341 339

GFSSGP_925_thetae_291.txt.gz
Theta_e
315 315 318 326 322 324 332 344 346 348 346 346 345 348 348 344 345 337 340 341 337 336 333 333 330 330 335 334 332 332 333 333 333 334 334 334 333 330 328 328 327 326 327 327 328 331 335 339 342
315 319 321 316 321 323 324 332 345 343 344 344 345 345 346 349 345 344 343 342 336 336 334 334 333 331 334 334 335 332 334 334 335 336 335 334 331 329 328 326 326 328 329 330 330 331 332 330 332
317 321 315 316 316 321 323 329 340 343 344 345 346 345 346 348 345 344 342 341 337 338 337 334 335 333 333 335 334 333 333 334 335 336 336 335 332 330 327 326 330 333 336 336 335 333 333 333 332
321 313 309 314 316 317 321 323 330 333 339 340 345 347 342 342 346 343 342 344 340 338 338 335 335 335 334 335 334 332 332 333 334 336 336 334 332 330 327 327 332 339 339 335 335 336 336 336 335
318 307 311 313 313 313 314 315 315 318 328 346 348 347 345 342 345 344 344 341 340 340 339 337 335 337 335 335 335 333 332 333 334 336 335 334 332 330 328 327 332 339 337 330 328 333 333 331 331
314 307 311 312 313 314 314 314 314 316 341 347 348 349 348 343 347 348 348 341 342 339 340 339 336 337 337 335 336 335 332 333 334 335 335 333 332 330 329 327 331 339 330 321 319 320 324 325 324
314 309 312 313 315 315 316 313 326 346 347 350 348 354 350 349 346 348 347 346 344 343 343 340 338 337 339 337 336 336 335 334 335 335 335 333 331 330 329 327 331 332 321 319 317 319 320 320 321
309 309 315 313 314 315 315 314 314 339 345 348 348 350 348 346 348 346 345 346 346 349 348 345 340 339 340 339 337 336 336 335 337 337 336 333 331 329 330 328 332 330 321 320 318 320 322 324 325
310 312 312 316 316 315 313 314 316 317 349 343 346 346 341 347 348 345 346 348 349 351 352 349 341 340 339 340 339 338 337 335 336 336 336 333 331 328 329 331 333 335 323 322 322 323 324 326 328
311 311 314 313 315 316 314 316 316 317 323 339 339 337 344 344 344 344 349 349 350 352 353 350 347 343 341 341 341 340 340 337 337 335 336 333 331 330 335 334 338 337 329 323 324 325 326 327 328
312 313 313 314 314 314 315 314 317 318 319 319 336 336 340 340 343 347 348 348 348 348 351 351 347 345 345 343 342 341 342 339 337 335 335 333 332 330 339 341 341 340 335 327 328 328 329 327 328
315 313 314 313 315 314 315 315 317 317 317 318 318 333 338 339 344 346 349 349 348 346 345 348 349 346 339 341 342 341 342 341 337 334 333 333 331 330 338 342 342 341 340 335 330 330 327 328 328
314 314 313 313 310 311 312 313 315 317 317 315 337 335 337 337 339 346 349 350 349 347 339 339 343 342 341 340 337 338 339 340 337 334 333 332 331 330 338 341 342 341 341 341 336 334 329 327 328
312 312 312 311 312 311 314 314 314 316 316 318 337 336 333 335 340 347 350 349 349 347 344 341 339 339 338 336 338 337 338 336 337 333 331 331 331 331 337 341 342 343 342 342 342 337 333 330 328
314 314 311 313 313 314 313 314 315 315 315 315 325 331 337 338 343 345 349 349 348 347 345 343 343 343 338 334 333 334 334 335 334 331 330 330 331 332 336 338 342 342 342 342 344 342 334 330 328
313 309 311 312 312 314 315 313 313 312 313 314 314 312 316 338 343 343 347 348 348 347 347 346 343 340 338 338 333 333 331 332 330 330 329 330 331 333 339 342 344 342 341 342 343 344 341 331 326
309 312 313 312 312 315 316 314 315 314 312 313 313 325 333 343 342 343 344 346 347 347 346 345 344 342 338 338 337 335 339 337 334 333 331 334 337 338 339 342 345 343 341 343 339 337 333 329 326
314 313 312 312 313 312 312 312 314 315 312 313 314 336 343 344 343 344 343 343 343 342 339 341 343 343 343 341 338 339 340 340 340 339 337 340 341 341 341 341 343 343 340 342 339 332 331 334 333
313 313 313 313 314 314 313 313 315 314 313 312 316 334 341 343 338 339 340 342 342 340 339 339 340 341 342 342 341 342 343 342 342 341 341 343 342 341 342 342 343 343 340 340 346 346 339 337 335
313 313 313 313 314 312 315 315 315 316 316 315 325 333 335 334 334 333 339 341 342 341 339 337 337 340 341 342 342 345 346 346 344 344 346 345 345 344 344 343 343 343 342 339 339 341 345 339 336
316 315 316 316 317 316 316 314 315 315 318 322 325 333 334 335 336 346 346 346 346 344 343 342 341 339 341 345 343 343 347 346 345 346 349 350 351 349 347 345 344 344 342 341 339 339 342 344 338
318 317 316 318 317 317 316 318 314 317 323 326 324 327 338 341 348 346 341 342 343 344 348 350 351 348 347 350 347 347 346 345 346 349 349 350 351 350 350 347 346 344 342 342 341 340 345 344 339
320 319 318 318 317 316 316 315 314 327 328 328 327 337 336 340 339 336 334 334 335 338 343 348 351 352 352 352 352 353 350 351 351 351 352 351 351 352 348 347 345 344 343 342 342 340 341 343 341
319 318 317 314 313 318 316 315 314 330 328 328 327 334 335 335 333 331 330 330 332 334 336 339 341 339 341 343 346 349 348 346 346 347 348 348 350 351 350 348 346 345 345 344 342 341 340 340 341
315 317 320 320 319 320 320 319 329 328 325 325 326 326 329 332 332 331 329 328 327 329 329 331 333 334 336 336 335 336 336 338 338 340 342 344 346 348 349 349 347 346 345 344 343 342 342 341 342
317 318 319 325 325 323 320 328 333 326 323 323 323 322 322 321 324 328 329 328 327 328 329 328 328 327 327 328 328 327 327 331 334 336 336 336 338 340 344 346 347 348 348 347 345 343 342 341 342
318 320 319 321 323 325 322 331 330 329 325 323 323 322 322 320 318 318 318 317 317 317 317 320 320 321 322 320 320 324 324 323 323 324 327 333 335 335 334 337 342 344 346 347 346 346 344 343 342
321 319 322 319 322 324 326 325 331 333 327 323 322 322 321 321 320 319 316 313 313 314 314 315 316 316 316 317 317 317 316 317 318 320 322 321 322 326 333 333 335 340 343 345 346 344 345 344 343
319 322 322 319 324 329 326 325 330 331 328 324 322 321 320 320 320 319 318 315 312 313 313 313 313 313 313 314 314 315 315 315 316 316 319 322 320 319 326 333 333 334 339 342 345 345 344 342 343
320 323 320 318 318 323 323 323 324 327 326 325 323 322 322 322 320 320 318 319 313 312 312 312 313 313 313 312 312 312 312 313 313 313 314 316 320 320 320 323 328 332 333 337 341 343 343 343 343